BAW169 EGLL-ZSPD

Flight info

Callsign BAW169
Flight time N/A
Altitude 35000
Route DET1J DET L6 DVR UL9 KONAN UL607 MATUG DCT BOMBI DCT LEPSA DCT RTB DCT PINQI DCT PESAT DCT TEGRI DCT OSTAL DCT LUGEB DCT UDROS UM859 KARDE UN644 ROLIN N644 ODILI/N0481F370 N644 ADEKI DCT LEYLA N161 GASBI/K0889F370 N161 MADEV/K0870F390 N161 SARIN/K0869S1190 A368 FKG W188 LIKMI DCT DKO W64 RUSER/K0893S1250 W64 LAXIB W560 TODAM B208 HFE R343 SASAN SAS82A
Aircraft B772/H-SDE1E3FGHIJ3J5J6M1M2P2RWXYZ/LB1D1

Departure

Time 2026-05-06 10:24
Airport London Heathrow Airport (EGLL)

Arrival

Time N/A
Airport Shanghai Pudong International Airport (ZSPD)
Time Latitude Longitude Altitude Speed Heading
2026-05-06 09:25 51.47208 -0.47203 93 ft 0 kts 89°
2026-05-06 10:09 51.47208 -0.47207 90 ft 2 kts 89°
2026-05-06 10:09 51.47208 -0.47249 91 ft 4 kts 89°
2026-05-06 10:09 51.47208 -0.47286 92 ft 2 kts 89°
2026-05-06 10:10 51.47210 -0.47325 90 ft 4 kts 118°
2026-05-06 10:10 51.47227 -0.47351 92 ft 4 kts 171°
2026-05-06 10:10 51.47252 -0.47353 94 ft 4 kts 179°
2026-05-06 10:10 51.47263 -0.47353 92 ft 0 kts 179°
2026-05-06 10:14 51.47230 -0.47353 94 ft 8 kts 180°
2026-05-06 10:14 51.47177 -0.47353 93 ft 8 kts 180°
2026-05-06 10:14 51.47056 -0.47352 92 ft 14 kts 179°
2026-05-06 10:15 51.46956 -0.47350 93 ft 14 kts 179°
2026-05-06 10:15 51.46861 -0.47349 90 ft 14 kts 179°
2026-05-06 10:15 51.46768 -0.47361 95 ft 14 kts 209°
2026-05-06 10:15 51.46745 -0.47503 92 ft 14 kts 268°
2026-05-06 10:16 51.46745 -0.47656 90 ft 14 kts 270°
2026-05-06 10:16 51.46744 -0.47808 90 ft 14 kts 269°
2026-05-06 10:16 51.46743 -0.47961 90 ft 14 kts 270°
2026-05-06 10:16 51.46743 -0.48126 90 ft 20 kts 270°
2026-05-06 10:17 51.46742 -0.48393 90 ft 25 kts 270°
2026-05-06 10:17 51.46742 -0.48638 90 ft 16 kts 270°
2026-05-06 10:17 51.46678 -0.48749 94 ft 15 kts 188°
2026-05-06 10:17 51.46605 -0.48767 93 ft 0 kts 195°
2026-05-06 10:20 51.46600 -0.48769 93 ft 6 kts 195°
2026-05-06 10:20 51.46540 -0.48779 93 ft 9 kts 168°
2026-05-06 10:20 51.46489 -0.48726 95 ft 9 kts 122°
2026-05-06 10:20 51.46479 -0.48640 93 ft 0 kts 90°
2026-05-06 10:22 51.46479 -0.48637 93 ft 0 kts 91°
2026-05-06 10:23 51.46480 -0.48400 91 ft 51 kts 89°
2026-05-06 10:23 51.46481 -0.47503 90 ft 111 kts 90°
2026-05-06 10:23 51.46489 -0.45964 91 ft 164 kts 91°
2026-05-06 10:24 51.46486 -0.44014 452 ft 181 kts 87°
2026-05-06 10:24 51.46473 -0.41983 1102 ft 180 kts 90°
2026-05-06 10:24 51.46019 -0.40072 1663 ft 197 kts 127°
2026-05-06 10:24 51.45024 -0.38511 1910 ft 204 kts 126°
2026-05-06 10:25 51.44418 -0.36491 2175 ft 199 kts 99°
2026-05-06 10:25 51.44091 -0.34347 2495 ft 203 kts 103°
2026-05-06 10:25 51.43648 -0.32132 2677 ft 210 kts 107°
2026-05-06 10:25 51.43145 -0.29941 3016 ft 214 kts 105°
2026-05-06 10:26 51.42671 -0.27637 3322 ft 216 kts 101°
2026-05-06 10:26 51.42362 -0.25304 3791 ft 212 kts 95°
2026-05-06 10:26 51.42061 -0.22915 3912 ft 226 kts 97°
2026-05-06 10:26 51.41748 -0.20422 4217 ft 232 kts 97°
2026-05-06 10:27 51.41418 -0.17832 4457 ft 241 kts 96°
2026-05-06 10:27 51.41095 -0.15196 4902 ft 240 kts 95°
2026-05-06 10:27 51.40772 -0.12592 5375 ft 238 kts 98°
2026-05-06 10:27 51.40375 -0.09996 5574 ft 247 kts 98°
2026-05-06 10:28 51.39973 -0.07335 5940 ft 247 kts 100°
2026-05-06 10:28 51.39532 -0.04635 6144 ft 255 kts 100°
2026-05-06 10:28 51.39126 -0.01816 6412 ft 263 kts 98°
2026-05-06 10:28 51.38753 0.01045 6894 ft 260 kts 98°
2026-05-06 10:29 51.38385 0.03859 7275 ft 263 kts 98°
2026-05-06 10:29 51.38011 0.06735 7601 ft 261 kts 97°
2026-05-06 10:29 51.37607 0.09565 7982 ft 262 kts 102°
2026-05-06 10:29 51.37082 0.12367 8266 ft 266 kts 101°
2026-05-06 10:30 51.36676 0.15282 8564 ft 271 kts 99°
2026-05-06 10:30 51.36269 0.18301 8895 ft 280 kts 99°
2026-05-06 10:30 51.35896 0.21365 9448 ft 281 kts 98°
2026-05-06 10:30 51.35483 0.24408 10057 ft 280 kts 101°
2026-05-06 10:31 51.35022 0.27458 10457 ft 284 kts 102°
2026-05-06 10:31 51.34565 0.30639 10575 ft 303 kts 100°
2026-05-06 10:31 51.34087 0.34019 10713 ft 322 kts 101°
2026-05-06 10:31 51.33590 0.37631 10863 ft 341 kts 100°
2026-05-06 10:32 51.33128 0.41415 11007 ft 360 kts 99°
2026-05-06 10:32 51.32659 0.45430 11464 ft 373 kts 99°
2026-05-06 10:32 51.32180 0.49527 12087 ft 379 kts 99°
2026-05-06 10:32 51.31689 0.53700 12753 ft 385 kts 100°
2026-05-06 10:33 51.31186 0.57926 13507 ft 388 kts 100°
2026-05-06 10:33 51.30675 0.62187 14139 ft 394 kts 101°
2026-05-06 10:33 51.30151 0.66522 14746 ft 398 kts 101°
2026-05-06 10:33 51.29619 0.70889 15420 ft 402 kts 101°
2026-05-06 10:34 51.29081 0.75297 16054 ft 406 kts 101°
2026-05-06 10:34 51.28534 0.79759 16631 ft 412 kts 101°
2026-05-06 10:34 51.27979 0.84271 17312 ft 415 kts 101°
2026-05-06 10:34 51.27420 0.88800 18018 ft 418 kts 101°
2026-05-06 10:35 51.26859 0.93322 18641 ft 420 kts 101°
2026-05-06 10:35 51.26290 0.97898 19373 ft 419 kts 101°
2026-05-06 10:35 51.25720 1.02472 20048 ft 421 kts 101°
2026-05-06 10:35 51.25144 1.07069 20548 ft 427 kts 101°
2026-05-06 10:36 51.24560 1.11721 21116 ft 429 kts 102°
2026-05-06 10:36 51.23971 1.16393 21736 ft 432 kts 102°
2026-05-06 10:36 51.23374 1.21119 22241 ft 437 kts 102°
2026-05-06 10:36 51.22765 1.25911 22705 ft 442 kts 102°
2026-05-06 10:37 51.22152 1.30729 23261 ft 445 kts 102°
2026-05-06 10:37 51.21533 1.35577 23727 ft 449 kts 103°
2026-05-06 10:37 51.20905 1.40471 24161 ft 451 kts 102°
2026-05-06 10:37 51.20274 1.45377 24615 ft 453 kts 103°
2026-05-06 10:38 51.19634 1.50329 25017 ft 456 kts 103°
2026-05-06 10:38 51.18992 1.55290 25436 ft 458 kts 102°
2026-05-06 10:38 51.18343 1.60281 25899 ft 459 kts 103°
2026-05-06 10:38 51.17693 1.65271 26232 ft 462 kts 103°
2026-05-06 10:39 51.17043 1.70233 26594 ft 464 kts 102°
2026-05-06 10:39 51.16382 1.75266 27022 ft 465 kts 102°
2026-05-06 10:39 51.15713 1.80337 27306 ft 469 kts 103°
2026-05-06 10:39 51.15041 1.85420 27667 ft 470 kts 103°
2026-05-06 10:40 51.14382 1.90398 28045 ft 470 kts 102°
2026-05-06 10:40 51.13701 1.95513 28449 ft 470 kts 103°
2026-05-06 10:40 51.13061 2.00628 28801 ft 472 kts 99°
2026-05-06 10:40 51.12703 2.05830 29062 ft 474 kts 95°
2026-05-06 10:41 51.12451 2.11089 29260 ft 477 kts 95°
2026-05-06 10:41 51.12198 2.16359 29534 ft 479 kts 95°
2026-05-06 10:41 51.11932 2.21657 29804 ft 480 kts 96°
2026-05-06 10:41 51.11657 2.26894 30015 ft 481 kts 96°
2026-05-06 10:42 51.11369 2.32199 30219 ft 482 kts 96°
2026-05-06 10:42 51.11074 2.37515 30456 ft 482 kts 96°
2026-05-06 10:42 51.10777 2.42812 30813 ft 479 kts 96°
2026-05-06 10:42 51.10480 2.48079 31074 ft 478 kts 96°
2026-05-06 10:43 51.10181 2.53350 31291 ft 478 kts 96°
2026-05-06 10:43 51.09880 2.58634 31496 ft 478 kts 96°
2026-05-06 10:43 51.09532 2.63886 31726 ft 478 kts 99°
2026-05-06 10:44 51.07976 2.74125 32167 ft 476 kts 107°
2026-05-06 10:44 51.07027 2.79171 32395 ft 476 kts 107°
2026-05-06 10:44 51.06082 2.84211 32636 ft 476 kts 107°
2026-05-06 10:44 51.05147 2.89241 32919 ft 474 kts 107°
2026-05-06 10:45 51.04218 2.94284 32914 ft 476 kts 107°
2026-05-06 10:45 51.02374 3.04339 32909 ft 472 kts 107°
2026-05-06 10:46 51.00552 3.14248 32910 ft 470 kts 107°
2026-05-06 10:46 50.98710 3.24199 32896 ft 469 kts 107°
2026-05-06 10:47 50.96860 3.34135 32888 ft 470 kts 106°
2026-05-06 10:47 50.94997 3.44093 32882 ft 470 kts 106°
2026-05-06 10:48 50.93126 3.54040 32879 ft 470 kts 107°
2026-05-06 10:48 50.91566 3.62296 32870 ft 470 kts 107°
2026-05-06 10:49 50.89664 3.72226 32887 ft 471 kts 107°
2026-05-06 10:49 50.87426 3.83742 32878 ft 472 kts 107°